Tracking 19149 objects as of 20-Apr-2018
HD Live streaming from Space Station
objects crossing your sky now

FLOCK 3M 4

Track FLOCK 3M 4 now!
10-day predictions
FLOCK 3M 4 is classified as:


NORAD ID: 42997
Int'l Code: 2017-068L
Perigee: 505.2 km
Apogee: 527.9 km
Inclination: 97.4 °
Period: 94.8 minutes
Semi major axis: 6887 km
RCS: Unknown
Launch date: October 31, 2017
Source: United States (US)
Launch site: AIR FORCE WESTERN TEST RANGE (AFWTR)
aabbcc
Your satellite tracking list
Your tracking list is empty




NASA's NSSDC Master Catalog

Two Line Element Set (TLE):
1 42997U 17068L   18110.48298030  .00000925  00000-0  47526-4 0  9992
2 42997  97.3667 225.1987 0016412 357.6350   2.4804 15.18817303 25886
Source of the keplerian elements: AFSPC